LINCON Weather Reports


Display with metric or nautical units.
time (UTC)temp
F
wind
direction
speed
MPH
gust
MPH
rain 1hr
in
rain 24hr
in
rain mn
in
humidity
%
barometer
mb
20260505011011 60 267 5.0 12.0 0.00 0.00 0.00 77 1010.1
20260505010510 60 273 6.0 12.0 0.00 0.00 0.00 77 1010.2
20260505010010 60 184 7.0 10.0 0.00 0.00 0.00 77 1010.1
20260505005604 60 271 4.0 11.0 0.00 0.00 0.00 78 1010.0
20260505005512 60 271 4.0 11.0 0.00 0.00 0.00 78 1010.0
20260505005010 60 204 6.0 11.0 0.00 0.00 0.00 77 1010.0
20260505004510 60 282 4.0 11.0 0.00 0.00 0.00 78 1010.0
20260505004010 60 281 5.0 11.0 0.00 0.00 0.00 77 1010.1
20260505003510 60 291 5.0 11.0 0.00 0.00 0.00 78 1010.1
20260505002510 61 256 5.0 10.0 0.00 0.00 0.00 77 1010.2
20260505002010 61 260 4.0 12.0 0.00 0.00 0.00 77 1010.2
20260505001510 61 191 3.0 12.0 0.00 0.00 0.00 78 1010.2
20260505001010 61 207 5.0 12.0 0.00 0.00 0.00 77 1010.3
20260505000510 61 194 6.0 10.0 0.00 0.00 0.00 77 1010.4
20260505000010 61 257 5.0 14.0 0.00 0.00 0.00 77 1010.5
20260504235510 61 267 5.0 14.0 0.00 0.00 0.00 77 1010.5
20260504235010 61 280 5.0 14.0 0.00 0.00 0.00 77 1010.5
20260504234510 61 252 5.0 11.0 0.00 0.00 0.00 78 1010.5
20260504234010 61 217 6.0 11.0 0.00 0.00 0.00 77 1010.5
20260504233510 61 308 6.0 10.0 0.00 0.00 0.00 78 1010.5
20260504233010 61 312 4.0 10.0 0.00 0.00 0.00 78 1010.5
20260504232512 61 242 6.0 10.0 0.00 0.00 0.00 77 1010.5
20260504232010 61 198 5.0 14.0 0.00 0.00 0.00 77 1010.4
20260504231510 61 266 4.0 14.0 0.00 0.00 0.00 77 1010.4
20260504231010 62 261 4.0 14.0 0.00 0.00 0.00 77 1010.5
20260504230511 62 256 5.0 13.0 0.00 0.00 0.00 77 1010.5
20260504230010 62 236 5.0 13.0 0.00 0.00 0.00 75 1010.4
20260504225512 62 263 6.0 14.0 0.00 0.00 0.00 74 1010.4
20260504225010 62 259 7.0 14.0 0.00 0.00 0.00 74 1010.4
20260504224511 62 208 7.0 14.0 0.00 0.00 0.00 74 1010.4
20260504224010 62 298 7.0 14.0 0.00 0.00 0.00 73 1010.5
20260504223510 62 266 9.0 14.0 0.00 0.00 0.00 74 1010.5
20260504223010 62 259 7.0 15.0 0.00 0.00 0.00 75 1010.5
20260504222510 62 245 8.0 15.0 0.00 0.00 0.00 74 1010.6
20260504222010 62 232 8.0 15.0 0.00 0.00 0.00 75 1010.6
20260504221510 63 231 7.0 14.0 0.00 0.00 0.00 75 1010.6
20260504221010 63 250 6.0 12.0 0.00 0.00 0.00 76 1010.7
20260504220510 63 256 7.0 12.0 0.00 0.00 0.00 75 1010.6
20260504220010 63 239 7.0 12.0 0.00 0.00 0.00 75 1010.7
20260504215510 63 211 6.0 15.0 0.00 0.00 0.00 76 1010.7
20260504215010 63 270 7.0 15.0 0.00 0.00 0.00 74 1010.7
20260504214510 63 246 7.0 15.0 0.00 0.00 0.00 75 1010.7
20260504214010 63 247 5.0 14.0 0.00 0.00 0.00 75 1010.8
20260504213510 63 261 9.0 15.0 0.00 0.00 0.00 73 1010.8
20260504213010 63 250 7.0 15.0 0.00 0.00 0.00 74 1010.8
20260504212510 63 229 7.0 15.0 0.00 0.00 0.00 76 1010.8
20260504212011 63 257 7.0 13.0 0.00 0.00 0.00 74 1010.8
20260504211510 63 245 7.0 13.0 0.00 0.00 0.00 75 1010.8
20260504211010 63 254 7.0 13.0 0.00 0.00 0.00 75 1010.8
20260504210510 63 224 8.0 14.0 0.00 0.00 0.00 74 1010.9
20260504210009 63 287 6.0 14.0 0.00 0.00 0.00 77 1010.9
20260504205511 62 268 9.0 14.0 0.00 0.00 0.00 78 1010.9
20260504205010 62 236 5.0 14.0 0.00 0.00 0.00 78 1011.0
20260504204510 62 261 6.0 14.0 0.00 0.00 0.00 78 1010.9
20260504203510 61 271 5.0 16.0 0.00 0.00 0.00 80 1011.0
20260504203010 61 266 6.0 16.0 0.00 0.00 0.00 80 1011.0
20260504202509 61 259 5.0 16.0 0.00 0.00 0.00 80 1011.1
20260504202010 61 259 4.0 12.0 0.00 0.00 0.00 82 1011.0
20260504201510 60 243 7.0 14.0 0.00 0.00 0.00 82 1011.1
20260504201009 60 306 6.0 14.0 0.00 0.00 0.00 82 1011.1
20260504200509 60 204 6.0 14.0 0.00 0.00 0.00 83 1011.1
20260504200011 60 246 7.0 11.0 0.00 0.00 0.00 82 1011.1
20260504195509 60 261 4.0 11.0 0.00 0.00 0.00 83 1011.1
20260504195009 59 236 7.0 17.0 0.00 0.00 0.00 84 1011.0
20260504194510 59 225 7.0 17.0 0.00 0.00 0.00 84 1011.0
20260504194009 59 224 7.0 17.0 0.00 0.00 0.00 84 1011.1
20260504193510 59 287 5.0 11.0 0.00 0.00 0.00 84 1011.0
20260504193011 59 252 4.0 13.0 0.00 0.00 0.00 84 1010.9
20260504192510 60 259 4.0 13.0 0.00 0.00 0.00 84 1011.0
20260504192009 59 274 6.0 13.0 0.00 0.00 0.00 84 1010.9
20260504191510 59 221 6.0 11.0 0.00 0.00 0.00 85 1010.9
20260504191009 59 298 7.0 12.0 0.00 0.00 0.00 84 1010.9
20260504190509 60 246 7.0 12.0 0.00 0.00 0.00 84 1010.9
20260504190009 59 264 7.0 12.0 0.00 0.00 0.00 84 1010.9
20260504185509 59 268 6.0 10.0 0.00 0.00 0.00 85 1010.9
20260504185010 59 243 5.0 10.0 0.00 0.00 0.00 86 1010.9
20260504184510 59 249 5.0 13.0 0.00 0.00 0.00 87 1010.9
20260504184010 59 249 4.0 13.0 0.00 0.00 0.00 87 1010.9
20260504183509 59 212 4.0 13.0 0.00 0.00 0.00 88 1010.9
20260504183009 59 191 6.0 12.0 0.00 0.00 0.00 87 1010.8
20260504182509 58 214 6.0 12.0 0.00 0.00 0.00 88 1010.7
20260504182009 58 170 3.0 12.0 0.00 0.00 0.00 88 1010.7
20260504181510 58 194 5.0 9.0 0.00 0.00 0.00 88 1010.6
20260504181009 58 240 4.0 9.0 0.00 0.00 0.00 89 1010.7
20260504180509 58 203 3.0 10.0 0.00 0.00 0.00 89 1010.6
20260504180009 58 187 4.0 10.0 0.00 0.00 0.00 90 1010.6
20260504175509 58 261 5.0 10.0 0.00 0.00 0.00 90 1010.5
20260504175010 58 200 1.0 10.0 0.00 0.00 0.00 90 1010.5
20260504174509 58 233 3.0 7.0 0.00 0.00 0.00 90 1010.5
20260504174010 58 194 5.0 7.0 0.00 0.00 0.00 92 1010.6
20260504173510 58 224 1.0 7.0 0.00 0.00 0.00 92 1010.6
20260504173009 57 260 1.0 7.0 0.00 0.00 0.00 93 1010.5
20260504172510 57 242 0.0 7.0 0.00 0.00 0.00 94 1010.6
20260504172009 57 198 0.0 9.0 0.00 0.00 0.00 94 1010.5
20260504171509 57 173 2.0 9.0 0.00 0.00 0.00 94 1010.5
20260504171009 57 315 0.0 9.0 0.00 0.00 0.00 95 1010.5
20260504170509 57 247 0.0 10.0 0.00 0.00 0.00 95 1010.4
20260504151009 56 0 0.0 0.0 0.00 0.00 0.00 96 1010.1
20260504150509 56 0 0.0 2.0 0.00 0.00 0.00 96 1010.1
20260504141009 55 0 0.0 0.0 0.00 0.00 0.00 95 1009.5
20260504140509 55 0 0.0 2.0 0.00 0.00 0.00 95 1009.4
20260504130509 55 198 0.0 5.0 0.00 0.00 0.00 95 1008.9
20260504110509 55 0 0.0 0.0 0.00 0.00 0.00 96 1008.9
20260504100509 55 0 0.0 0.0 0.00 0.00 0.00 96 1008.7
20260504081509 56 0 0.0 0.0 0.00 0.00 0.00 95 1008.6
20260504081009 56 0 0.0 0.0 0.00 0.00 0.00 94 1008.5
20260504080509 56 0 0.0 0.0 0.00 0.00 0.00 94 1008.4
20260504050509 56 184 0.0 7.0 0.00 0.00 0.00 91 1007.7
20260504050009 56 169 0.0 2.0 0.00 0.00 0.00 91 1007.7
20260504045509 56 0 0.0 5.0 0.00 0.00 0.00 91 1007.7
20260504045009 56 169 0.0 5.0 0.00 0.00 0.00 91 1007.6
20260504044509 56 240 0.0 5.0 0.00 0.00 0.00 91 1007.5
20260504044009 56 201 0.0 5.0 0.00 0.00 0.00 92 1007.5
20260504043508 56 0 0.0 5.0 0.00 0.00 0.00 91 1007.4
20260504043009 56 0 0.0 5.0 0.00 0.00 0.00 91 1007.3
20260504042509 56 205 0.0 7.0 0.00 0.00 0.00 91 1007.2
20260504042009 56 225 0.0 7.0 0.00 0.00 0.00 91 1007.1
20260504041509 56 0 0.0 7.0 0.00 0.00 0.00 91 1006.9
20260504041009 56 263 0.0 11.0 0.00 0.00 0.00 90 1006.8
20260504040509 56 0 1.0 11.0 0.00 0.00 0.00 90 1006.8
20260504040009 56 252 0.0 11.0 0.00 0.00 0.00 90 1006.7
20260504035509 56 0 2.0 7.0 0.00 0.00 0.00 90 1006.6
20260504035009 56 0 0.0 7.0 0.00 0.00 0.00 90 1006.6
20260504034509 57 252 0.0 7.0 0.00 0.00 0.00 90 1006.5
20260504034009 57 193 0.0 5.0 0.00 0.00 0.00 89 1006.5
20260504033509 57 170 0.0 9.0 0.00 0.00 0.00 89 1006.4
20260504033009 57 226 0.0 9.0 0.00 0.00 0.00 89 1006.4
20260504032509 57 236 4.0 9.0 0.00 0.00 0.00 89 1006.2
20260504032009 56 140 0.0 6.0 0.00 0.00 0.00 88 1006.1
20260504031509 57 268 1.0 6.0 0.00 0.00 0.00 88 1006.1
20260504031009 57 268 0.0 9.0 0.00 0.00 0.00 87 1006.0
20260504030511 57 270 0.0 9.0 0.00 0.00 0.00 87 1005.9
20260504030009 57 196 1.0 9.0 0.00 0.00 0.00 86 1005.9
20260504025509 57 214 0.0 8.0 0.00 0.00 0.00 86 1005.9
20260504025009 57 217 0.0 8.0 0.00 0.00 0.00 86 1005.8
20260504024510 57 278 0.0 8.0 0.00 0.00 0.00 85 1005.8
20260504024010 57 0 0.0 0.0 0.00 0.00 0.00 85 1005.7
20260504023509 58 0 0.0 4.0 0.00 0.00 0.00 84 1005.7
20260504023009 57 0 0.0 4.0 0.00 0.00 0.00 84 1005.7
20260504022509 58 205 0.0 4.0 0.00 0.00 0.00 83 1005.6
20260504022009 58 0 0.0 0.0 0.00 0.00 0.00 82 1005.6
20260504021509 58 0 0.0 6.0 0.00 0.00 0.00 82 1005.5
20260504021009 58 0 0.0 6.0 0.00 0.00 0.00 82 1005.5
20260504020509 58 187 0.0 6.0 0.00 0.00 0.00 82 1005.5
20260504020009 58 219 0.0 5.0 0.00 0.00 0.00 81 1005.4
20260504015509 59 212 0.0 5.0 0.00 0.00 0.00 81 1005.4
20260504015011 59 0 0.0 0.0 0.00 0.00 0.00 80 1005.4
20260504014509 59 0 0.0 0.0 0.00 0.00 0.00 79 1005.3
20260504014010 59 0 0.0 7.0 0.00 0.00 0.00 78 1005.3
20260504013509 60 211 0.0 7.0 0.00 0.00 0.00 77 1005.3
20260504013009 60 194 1.0 7.0 0.00 0.00 0.00 75 1005.3
20260504012509 61 264 0.0 7.0 0.00 0.00 0.00 74 1005.2
20260504012009 62 0 0.0 7.0 0.00 0.00 0.00 74 1005.2
20260504011512 62 268 0.0 10.0 0.00 0.00 0.00 74 1005.2